Content
SEND FEEDBACK

Daily
Averages
Monthly
Summary
Brazil

SÃO PAULO, SÃO PAULO


Home > South America > Brazil > São Paulo
Elevation: 2634 feet     Latitude: 23 37S     Longitude: 046 39W

WEATHER
 
SELECT A DAY
Number of Records: 158,235;   Date Range: 6/30/96 - 7/30/14
 
SHARE

PRINT THIS DATA

[ ← Previous Day ]
WEATHER ALMANAC - OCTOBER 13, 2013
[ Next Day → ]
[ °C ]   °F
Weather ElementAverageHighLow
Temperature73.5 °F82.4 °F (1:00 pm)62.6 °F (5:00 am)
Dewpoint52.1 °F56 °F (9:00 pm)50 °F (11:00 am)
Humidity47.3 %72 % (6:00 am)22 % (3:00 pm)
Barometer30.08 in30.15 in (1:00 am)30.04 in (2:00 pm)
Wind Speed6.6 mph11.5 mph (11:00 am)
Wind Gust19.6 mph (4:00 pm)
Weather ElementAverage
Visibility12 mi
Wind DirectionSSE (148.1 °)

Weather ElementTotal
Precipitation---
Cooling Degree Days7.5 (Base 65)
Growing Degree Days22.5 (Base 50)
Averaged from 27 records on October 13, 2013
WEATHER CONDITIONS BREAKOUT
WIND DIRECTION BREAKOUT
WEATHER BY HOUR - OCTOBER 13, 2013
[ °C ]   °F
Local TimeTemperatureDewpointHumidityBarometerVisibilityWind DirectionWind SpeedGust SpeedPrecipitationEventsConditions
1:00 AM64.4 °F51.8 °F64 %30.15 inEast (80°)2.3 mphClear
2:00 AM64.4 °F51.8 °F64 %30.12 inENE (70°)4.6 mphClear
3:00 AM65.0 °F53.0 °F55 %12.0 miENE (60°)5.8 mph
3:00 AM64.4 °F53.6 °F68 %30.09 inENE (60°)5.8 mphClear
4:00 AM64.4 °F51.8 °F64 %30.09 inENE (60°)6.9 mphClear
5:00 AM62.6 °F51.8 °F68 %30.12 inNE (50°)5.8 mphClear
6:00 AM62.6 °F53.6 °F72 %30.12 inENE (60°)5.8 mphClear
7:00 AM64.4 °F53.6 °F68 %30.12 inNE (50°)8.1 mphClear
8:00 AM68.0 °F51.8 °F56 %30.12 inNNE (30°)9.2 mphClear
9:00 AM70.0 °F52.0 °F42 %12.0 miNNE (20°)9.2 mphClear
9:00 AM69.8 °F51.8 °F53 %30.12 inNNE (20°)9.2 mphClear
10:00 AM75.2 °F51.8 °F44 %30.12 inNNW (340°)8.1 mphClear
11:00 AM78.8 °F50.0 °F36 %30.12 inNNW (330°)11.5 mphClear
12:00 PM78.8 °F50.0 °F36 %30.09 inNNW (330°)9.2 mphClear
1:00 PM82.4 °F50.0 °F32 %30.06 inNorth (350°)11.5 mphClear
2:00 PM80.6 °F50.0 °F34 %30.04 inNNW (330°)8.1 mphClear
3:00 PM82.0 °F50.0 °F22 %12.0 miWest (260°)5.8 mphMostly Cloudy
3:00 PM82.4 °F50.0 °F32 %30.04 inVariable5.8 mphClear
4:00 PM80.6 °F50.0 °F34 %30.04 inWest (280°)6.9 mph19.6 mphClear
5:00 PM82.4 °F50.0 °F32 %30.04 inWest (260°)5.8 mphClear
6:00 PM80.6 °F50.0 °F34 %30.04 inWest (280°)3.5 mphClear
7:00 PM80.6 °F50.0 °F34 %30.06 inNW (320°)5.8 mphClear
8:00 PM77.0 °F55.4 °F47 %30.06 inESE (110°)4.6 mphClear
9:00 PM77.0 °F56.0 °F38 %12.0 miENE (70°)4.6 mphMostly Cloudy
9:00 PM77.0 °F55.4 °F47 %30.06 inENE (70°)4.6 mphClear
10:00 PM75.2 °F55.4 °F50 %30.06 inENE (60°)3.5 mphClear
11:00 PM75.2 °F55.4 °F50 %30.06 inNE (50°)6.9 mphClear
Hourly data recorded from SBSP, located miles away from São Paulo, São Paulo







STORIES FROM OUR PARTNERS